Location: Waco, TX
(31.5480°N, 97.1670°W)
Time: 15:59:24
(UTC-06:00)

ISS - Pass Details

Date: 09 January 2018
Orbit: 402 x 407 km, 51.6° (Epoch: 18 January)

Event Time Altitude Azimuth Distance (km) Brightness Sun altitude
Rises 01:35:08 0° 239° (WSW) 2,302 - -73.7°
Reaches altitude 10° 01:37:16 10° 247° (WSW) 1,447 - -73.4°
Maximum altitude 01:40:21 39° 318° (NW) 614 - -72.8°
Drops below altitude 10° 01:43:27 10° 30° (NNE) 1,457 - -72.2°
Sets 01:45:37 0° 38° (NE) 2,320 - -71.8°
